Change the Weather History Date:

Friday, August 9, 2013

  Actual Average (KBPI) Record (KBPI)
Temperature  
Mean Temperature 60 °F 62 °F  
Max Temperature 75 °F 81 °F 93 °F (2003)
Min Temperature 46 °F 42 °F 30 °F (2002)
Degree Days  
Heating Degree Days 4 4  
Month to date heating degree days 32  
Since 1 June heating degree days 454  
Since 1 July heating degree days 149  
Cooling Degree Days 0 1  
Month to date cooling degree days 9  
Year to date cooling degree days 33  
Since 1 June cooling degree days 33  
Growing Degree Days 10 (Base 50)    
Moisture  
Dew Point 37 °F    
Average Humidity 43    
Maximum Humidity 81    
Minimum Humidity 18    
Precipitation  
Precipitation 0.00 in 0.03 in 0.06 in (1994)
Month to date precipitation 0.21  
Year to date precipitation 4.18  
Sea Level Pressure  
Sea Level Pressure 30.28 in    
Wind  
Wind Speed 6 mph (ENE)    
Max Wind Speed 20 mph    
Max Gust Speed 36 mph    
Visibility 10 miles    
Events Rain , Thunderstorm    
T = Trace of Precipitation, MM = Missing Value Source: NWS Daily Summary

Daily Weather History Graph

Daily Weather History Graph

Search for Another Location

Airport or City:

Trip Planner

Search our weather history database for the weather conditions in past years. The results will help you decide how hot, cold, wet, or windy it might be!

Date:

Astronomy

Aug. 09, 2013 Rise Set
Actual Time 6:19 AM MDT 8:29 PM MDT
Civil Twilight 5:48 AM MDT 9:00 PM MDT
Nautical Twilight 5:09 AM MDT 9:38 PM MDT
Astronomical Twilight 4:27 AM MDT 10:20 PM MDT
Moon 9:14 AM MDT (8/9) 9:34 PM MDT (8/9)
Length of Visible Light 15h 12m
Length of Day
14h 09m
Waxing Crescent, 8% of the Moon is Illuminated
Aug 9
Waxing Crescent
Aug 14
First Quarter
Aug 20
Full
Aug 28
Last Quarter
Sep 5
New

Hourly Weather History & Observations

Time (MDT) Temp. Windchill Dew Point Humidity Pressure Visibility Wind Dir Wind Speed Gust Speed Precip Events Conditions
12:15 AM 55.4 °F - 42.8 °F 63% 30.31 in 10.0 mi ESE 5.8 mph - N/A   Overcast
12:35 AM 55.4 °F - 42.8 °F 63% 30.31 in 10.0 mi ESE 4.6 mph - N/A Rain Light Rain
12:55 AM 55.4 °F - 42.8 °F 63% 30.30 in 10.0 mi East 5.8 mph - N/A   Overcast
1:15 AM 55.4 °F - 42.8 °F 63% 30.29 in 10.0 mi ESE 5.8 mph - N/A   Overcast
1:35 AM 57.2 °F - 42.8 °F 59% 30.30 in 10.0 mi East 3.5 mph - N/A Rain Light Rain
1:55 AM 57.2 °F - 42.8 °F 59% 30.29 in 10.0 mi NE 4.6 mph - N/A Rain Rain
2:15 AM 59.0 °F - 42.8 °F 55% 30.27 in 10.0 mi NE 9.2 mph - N/A   Overcast
2:35 AM 59.0 °F - 42.8 °F 55% 30.26 in 10.0 mi NNE 16.1 mph - N/A Rain Light Rain
2:55 AM 59.0 °F - 41.0 °F 51% 30.26 in 10.0 mi NNE 9.2 mph - N/A   Mostly Cloudy
3:15 AM 59.0 °F - 39.2 °F 48% 30.25 in 10.0 mi NNE 8.1 mph - N/A   Scattered Clouds
3:35 AM 55.4 °F - 39.2 °F 54% 30.25 in 10.0 mi NNE 6.9 mph - N/A   Clear
3:55 AM 53.6 °F - 39.2 °F 58% 30.26 in 10.0 mi Calm Calm - N/A   Clear
4:15 AM 51.8 °F - 39.2 °F 62% 30.26 in 10.0 mi WNW 6.9 mph - N/A   Clear
4:35 AM 51.8 °F - 41.0 °F 67% 30.27 in 10.0 mi NW 4.6 mph - N/A   Clear
4:55 AM 50.0 °F - 41.0 °F 71% 30.27 in 10.0 mi NW 3.5 mph - N/A   Clear
5:15 AM 50.0 °F - 41.0 °F 71% 30.27 in 10.0 mi NNW 4.6 mph - N/A   Clear
5:35 AM 50.0 °F - 39.2 °F 66% 30.27 in 10.0 mi Calm Calm - N/A   Clear
5:55 AM 48.2 °F - 41.0 °F 76% 30.27 in 10.0 mi WSW 3.5 mph - N/A   Clear
6:15 AM 46.4 °F 43.5 °F 39.2 °F 76% 30.27 in 10.0 mi West 5.8 mph - N/A   Clear
6:35 AM 46.4 °F 45.2 °F 39.2 °F 76% 30.29 in 10.0 mi WNW 3.5 mph - N/A   Clear
6:55 AM 46.4 °F 44.3 °F 41.0 °F 81% 30.29 in 10.0 mi NW 4.6 mph - N/A   Clear
7:15 AM 48.2 °F - 41.0 °F 76% 30.29 in 10.0 mi WNW 3.5 mph - N/A   Clear
7:35 AM 50.0 °F - 41.0 °F 71% 30.30 in 10.0 mi Calm Calm - N/A   Clear
7:55 AM 51.8 °F - 41.0 °F 67% 30.29 in 10.0 mi WNW 3.5 mph - N/A   Scattered Clouds
8:15 AM 51.8 °F - 41.0 °F 67% 30.30 in 10.0 mi Calm Calm - N/A   Clear
8:35 AM 55.4 °F - 41.0 °F 58% 30.30 in 10.0 mi Calm Calm - N/A   Clear
8:55 AM 57.2 °F - 41.0 °F 55% 30.30 in 10.0 mi Calm Calm - N/A   Scattered Clouds
9:15 AM 60.8 °F - 41.0 °F 48% 30.30 in 10.0 mi Calm Calm - N/A   Scattered Clouds
9:35 AM 64.4 °F - 37.4 °F 37% 30.30 in 10.0 mi East 3.5 mph - N/A   Mostly Cloudy
9:55 AM 64.4 °F - 37.4 °F 37% 30.29 in 10.0 mi East 5.8 mph - N/A   Scattered Clouds
10:15 AM 64.4 °F - 37.4 °F 37% 30.30 in 10.0 mi East 8.1 mph - N/A   Scattered Clouds
10:35 AM 68.0 °F - 37.4 °F 33% 30.29 in 10.0 mi ESE 6.9 mph - N/A   Clear
10:55 AM 68.0 °F - 37.4 °F 33% 30.29 in 10.0 mi ESE 3.5 mph - N/A   Clear
11:15 AM 69.8 °F - 37.4 °F 31% 30.29 in 10.0 mi ESE 8.1 mph - N/A   Clear
11:35 AM 69.8 °F - 37.4 °F 31% 30.29 in 10.0 mi ESE 10.4 mph - N/A   Clear
11:55 AM 71.6 °F - 35.6 °F 27% 30.29 in 10.0 mi East 10.4 mph 16.1 mph N/A Thunderstorm Clear
12:15 PM 71.6 °F - 35.6 °F 27% 30.29 in 10.0 mi SSW 3.5 mph - N/A Thunderstorm Clear
12:35 PM 73.4 °F - 35.6 °F 25% 30.27 in 10.0 mi East 10.4 mph - N/A   Scattered Clouds
12:55 PM 73.4 °F - 33.8 °F 23% 30.27 in 10.0 mi East 5.8 mph - N/A   Scattered Clouds
1:15 PM 73.4 °F - 33.8 °F 23% 30.26 in 10.0 mi SSE 10.4 mph - N/A   Scattered Clouds
1:35 PM 71.6 °F - 32.0 °F 23% 30.25 in 10.0 mi NNW 3.5 mph - N/A   Scattered Clouds
1:55 PM 73.4 °F - 28.4 °F 19% 30.25 in 10.0 mi West 9.2 mph 23.0 mph N/A   Mostly Cloudy
2:15 PM 75.2 °F - 32.0 °F 21% 30.25 in 10.0 mi West 11.5 mph 17.3 mph N/A Thunderstorm Thunderstorm
2:35 PM 71.6 °F - 32.0 °F 23% 30.26 in 10.0 mi WNW 16.1 mph 35.7 mph N/A Thunderstorm Scattered Clouds
2:55 PM 73.4 °F - 32.0 °F 22% 30.26 in 10.0 mi WNW 13.8 mph 19.6 mph N/A Thunderstorm Thunderstorm
3:15 PM 73.4 °F - 30.2 °F 20% 30.26 in 10.0 mi WNW 9.2 mph 17.3 mph N/A   Scattered Clouds
3:35 PM 71.6 °F - 30.2 °F 22% 30.26 in 10.0 mi NW 15.0 mph 18.4 mph N/A   Clear
3:55 PM 71.6 °F - 30.2 °F 22% 30.24 in 10.0 mi North 5.8 mph - N/A   Clear
4:15 PM 73.4 °F - 28.4 °F 19% 30.23 in 10.0 mi North 10.4 mph - N/A   Clear
4:35 PM 73.4 °F - 28.4 °F 19% 30.24 in 10.0 mi Calm Calm - N/A   Clear
4:55 PM 75.2 °F - 28.4 °F 18% 30.24 in 10.0 mi NNW 8.1 mph - N/A   Clear
5:15 PM 75.2 °F - 28.4 °F 18% 30.25 in 10.0 mi NNW 9.2 mph - N/A   Clear
5:35 PM 73.4 °F - 26.6 °F 18% 30.24 in 10.0 mi NNW 9.2 mph - N/A   Clear
5:55 PM 71.6 °F - 28.4 °F 20% 30.24 in 10.0 mi NW 5.8 mph - N/A   Scattered Clouds
6:15 PM 71.6 °F - 28.4 °F 20% 30.24 in 10.0 mi NNE 3.5 mph - N/A   Mostly Cloudy
6:35 PM 71.6 °F - 28.4 °F 20% 30.24 in 10.0 mi West 5.8 mph - N/A   Overcast
6:55 PM 71.6 °F - 30.2 °F 22% 30.24 in 10.0 mi Calm Calm - N/A   Overcast
7:15 PM 69.8 °F - 32.0 °F 25% 30.24 in 10.0 mi ESE 5.8 mph - N/A   Mostly Cloudy
7:35 PM 69.8 °F - 32.0 °F 25% 30.24 in 10.0 mi SE 11.5 mph 20.7 mph N/A   Overcast
7:55 PM 69.8 °F - 32.0 °F 25% 30.26 in 10.0 mi South 6.9 mph - N/A   Mostly Cloudy
8:15 PM 68.0 °F - 35.6 °F 30% 30.27 in 10.0 mi SSE 19.6 mph 24.2 mph N/A   Mostly Cloudy
8:35 PM 64.4 °F - 35.6 °F 34% 30.26 in 10.0 mi SSE 17.3 mph 25.3 mph N/A   Overcast
8:55 PM 62.6 °F - 35.6 °F 37% 30.27 in 10.0 mi SSE 18.4 mph 25.3 mph N/A   Scattered Clouds
9:15 PM 62.6 °F - 35.6 °F 37% 30.28 in 10.0 mi SSE 18.4 mph 25.3 mph N/A   Scattered Clouds
9:35 PM 62.6 °F - 35.6 °F 37% 30.29 in 10.0 mi SE 13.8 mph 18.4 mph N/A   Mostly Cloudy
9:55 PM 62.6 °F - 35.6 °F 37% 30.30 in 10.0 mi SSE 13.8 mph - N/A   Mostly Cloudy
10:15 PM 60.8 °F - 37.4 °F 42% 30.31 in 10.0 mi ESE 8.1 mph - N/A   Scattered Clouds
10:35 PM 59.0 °F - 37.4 °F 45% 30.31 in 10.0 mi ESE 6.9 mph - N/A   Scattered Clouds
10:55 PM 57.2 °F - 39.2 °F 51% 30.31 in 10.0 mi ESE 6.9 mph - N/A   Scattered Clouds
11:15 PM 57.2 °F - 39.2 °F 51% 30.32 in 10.0 mi ESE 9.2 mph - N/A   Scattered Clouds
11:35 PM 57.2 °F - 41.0 °F 55% 30.32 in 10.0 mi ESE 8.1 mph - N/A   Clear
11:55 PM 53.6 °F - 41.0 °F 62% 30.32 in 10.0 mi South 3.5 mph - N/A   Clear